| time (UTC) | temp F | wind direction | speed MPH | gust MPH | rain 1hr in | rain 24hr in | rain mn in | humidity % | barometer mb |
| 20260503184505 | 60 | 268 | 1.0 | 5.0 | 0.00 | 0.01 | 0.01 | 72 | 1014.6 |
| 20260503183816 | 60 | 277 | 0.0 | 5.0 | 0.00 | 0.01 | 0.01 | 72 | 1014.6 |
| 20260503182918 | 59 | 271 | 1.0 | 4.0 | 0.00 | 0.01 | 0.01 | 75 | 1014.6 |
| 20260503182015 | 58 | 300 | 1.0 | 5.0 | 0.00 | 0.01 | 0.01 | 80 | 1014.6 |
| 20260503180904 | 57 | 297 | 2.0 | 5.0 | 0.00 | 0.01 | 0.01 | 82 | 1014.6 |
| 20260503180215 | 57 | 303 | 2.0 | 5.0 | 0.00 | 0.01 | 0.01 | 82 | 1014.6 |
| 20260503175617 | 57 | 296 | 1.0 | 5.0 | 0.00 | 0.01 | 0.01 | 82 | 1014.7 |
| 20260503174504 | 59 | 236 | 1.0 | 4.0 | 0.00 | 0.01 | 0.01 | 79 | 1014.6 |
| 20260503173816 | 59 | 237 | 1.0 | 4.0 | 0.00 | 0.01 | 0.01 | 77 | 1014.6 |
| 20260503172705 | 59 | 204 | 1.0 | 5.0 | 0.00 | 0.01 | 0.01 | 80 | 1014.6 |
| 20260503172016 | 58 | 247 | 1.0 | 4.0 | 0.00 | 0.01 | 0.01 | 81 | 1014.6 |
| 20260503170905 | 58 | 230 | 1.0 | 3.0 | 0.00 | 0.01 | 0.01 | 80 | 1014.4 |
| 20260503160217 | 55 | 226 | 0.0 | 2.0 | 0.01 | 0.01 | 0.01 | 89 | 1014.3 |
| 20260503131116 | 53 | 106 | 0.0 | 3.0 | 0.00 | 0.00 | 0.00 | 90 | 1012.7 |
| 20260503120214 | 53 | 201 | 0.0 | 1.0 | 0.00 | 0.00 | 0.00 | 89 | 1012.4 |
| 20260503080905 | 55 | 216 | 0.0 | 4.0 | 0.00 | 0.00 | 0.00 | 84 | 1012.8 |
| 20260503072915 | 55 | 219 | 0.0 | 1.0 | 0.00 | 0.00 | 0.00 | 83 | 1013.0 |
| 20260503071805 | 55 | 180 | 0.0 | 2.0 | 0.00 | 0.00 | 0.00 | 83 | 1013.0 |
| 20260503070904 | 55 | 186 | 0.0 | 3.0 | 0.00 | 0.00 | 0.00 | 84 | 1013.0 |
| 20260503054717 | 55 | 261 | 0.0 | 1.0 | 0.00 | 0.00 | 0.00 | 83 | 1013.2 |
| 20260503053819 | 55 | 230 | 0.0 | 1.0 | 0.00 | 0.00 | 0.00 | 83 | 1013.2 |
| 20260503052916 | 55 | 237 | 0.0 | 1.0 | 0.00 | 0.00 | 0.00 | 83 | 1013.3 |
| 20260503052019 | 55 | 248 | 0.0 | 2.0 | 0.00 | 0.00 | 0.00 | 83 | 1013.4 |
| 20260503050904 | 55 | 231 | 0.0 | 1.0 | 0.00 | 0.00 | 0.00 | 83 | 1013.5 |
| 20260503050005 | 55 | 248 | 0.0 | 2.0 | 0.00 | 0.00 | 0.00 | 83 | 1013.4 |
| 20260503045405 | 55 | 264 | 0.0 | 2.0 | 0.00 | 0.00 | 0.00 | 83 | 1013.4 |
| 20260503044505 | 55 | 266 | 0.0 | 3.0 | 0.00 | 0.00 | 0.00 | 83 | 1013.4 |
| 20260503043604 | 55 | 268 | 0.0 | 1.0 | 0.00 | 0.00 | 0.00 | 83 | 1013.5 |
| 20260503042917 | 55 | 260 | 0.0 | 1.0 | 0.00 | 0.00 | 0.00 | 83 | 1013.4 |
| 20260503042014 | 55 | 259 | 0.0 | 3.0 | 0.00 | 0.00 | 0.00 | 83 | 1013.4 |
| 20260503041117 | 55 | 263 | 0.0 | 2.0 | 0.00 | 0.00 | 0.00 | 83 | 1013.3 |
| 20260503040219 | 55 | 261 | 0.0 | 2.0 | 0.00 | 0.00 | 0.00 | 83 | 1013.2 |
| 20260503035405 | 55 | 216 | 0.0 | 1.0 | 0.00 | 0.00 | 0.00 | 83 | 1013.0 |
| 20260503034718 | 55 | 267 | 0.0 | 3.0 | 0.00 | 0.00 | 0.00 | 83 | 1012.9 |
| 20260503033604 | 55 | 270 | 0.0 | 2.0 | 0.00 | 0.00 | 0.00 | 82 | 1012.8 |
| 20260503032705 | 55 | 272 | 0.0 | 3.0 | 0.00 | 0.00 | 0.00 | 82 | 1012.7 |
| 20260503031804 | 55 | 271 | 0.0 | 3.0 | 0.00 | 0.00 | 0.00 | 82 | 1012.6 |
| 20260503030905 | 56 | 277 | 0.0 | 2.0 | 0.00 | 0.00 | 0.00 | 81 | 1012.6 |
| 20260503030214 | 56 | 299 | 1.0 | 4.0 | 0.00 | 0.00 | 0.00 | 81 | 1012.6 |
| 20260503025404 | 56 | 276 | 0.0 | 6.0 | 0.00 | 0.00 | 0.00 | 81 | 1012.6 |
| 20260503024718 | 56 | 275 | 1.0 | 3.0 | 0.00 | 0.00 | 0.00 | 81 | 1012.6 |
| 20260503023605 | 56 | 270 | 1.0 | 4.0 | 0.00 | 0.00 | 0.00 | 81 | 1012.6 |
| 20260503022704 | 56 | 287 | 1.0 | 4.0 | 0.00 | 0.00 | 0.00 | 81 | 1012.5 |
| 20260503022015 | 56 | 279 | 1.0 | 5.0 | 0.00 | 0.00 | 0.00 | 80 | 1012.6 |
| 20260503020905 | 56 | 283 | 1.0 | 5.0 | 0.00 | 0.00 | 0.00 | 80 | 1012.5 |
| 20260503020215 | 56 | 286 | 1.0 | 5.0 | 0.00 | 0.00 | 0.00 | 80 | 1012.5 |
| 20260503015405 | 56 | 299 | 2.0 | 6.0 | 0.00 | 0.00 | 0.00 | 80 | 1012.5 |
| 20260503014504 | 57 | 291 | 2.0 | 6.0 | 0.00 | 0.00 | 0.00 | 80 | 1012.5 |
| 20260503013604 | 57 | 287 | 2.0 | 6.0 | 0.00 | 0.00 | 0.00 | 79 | 1012.6 |
| 20260503012705 | 57 | 289 | 2.0 | 6.0 | 0.00 | 0.00 | 0.00 | 79 | 1012.5 |
| 20260503011806 | 57 | 281 | 2.0 | 7.0 | 0.00 | 0.00 | 0.00 | 80 | 1012.5 |
| 20260503011118 | 58 | 293 | 1.0 | 5.0 | 0.00 | 0.00 | 0.00 | 80 | 1012.5 |
| 20260503010216 | 58 | 295 | 1.0 | 6.0 | 0.00 | 0.00 | 0.00 | 80 | 1012.6 |
| 20260503005617 | 58 | 283 | 1.0 | 6.0 | 0.00 | 0.00 | 0.00 | 80 | 1012.6 |
| 20260503004715 | 58 | 262 | 1.0 | 5.0 | 0.00 | 0.00 | 0.00 | 80 | 1012.6 |
| 20260503003605 | 58 | 286 | 2.0 | 6.0 | 0.00 | 0.00 | 0.00 | 81 | 1012.5 |
| 20260503002705 | 58 | 276 | 1.0 | 6.0 | 0.00 | 0.00 | 0.00 | 80 | 1012.5 |
| 20260503001805 | 58 | 292 | 1.0 | 4.0 | 0.00 | 0.00 | 0.00 | 81 | 1012.6 |
| 20260503001119 | 58 | 295 | 1.0 | 5.0 | 0.00 | 0.00 | 0.00 | 82 | 1012.6 |
| 20260503000005 | 58 | 288 | 3.0 | 7.0 | 0.00 | 0.00 | 0.00 | 84 | 1012.7 |
| 20260502235618 | 57 | 295 | 3.0 | 7.0 | 0.00 | 0.00 | 0.00 | 83 | 1012.7 |
| 20260502234715 | 58 | 282 | 2.0 | 6.0 | 0.00 | 0.00 | 0.00 | 82 | 1012.7 |
| 20260502233818 | 58 | 309 | 1.0 | 5.0 | 0.00 | 0.00 | 0.00 | 82 | 1012.8 |
| 20260502232704 | 58 | 289 | 1.0 | 7.0 | 0.00 | 0.00 | 0.00 | 82 | 1012.7 |
| 20260502231804 | 58 | 297 | 2.0 | 6.0 | 0.00 | 0.00 | 0.00 | 82 | 1012.8 |
| 20260502231115 | 58 | 291 | 3.0 | 8.0 | 0.00 | 0.00 | 0.00 | 82 | 1012.9 |
| 20260502230005 | 58 | 298 | 2.0 | 7.0 | 0.00 | 0.00 | 0.00 | 83 | 1013.0 |
| 20260502225405 | 58 | 304 | 2.0 | 6.0 | 0.00 | 0.00 | 0.00 | 83 | 1013.3 |
| 20260502224505 | 58 | 281 | 2.0 | 6.0 | 0.00 | 0.00 | 0.00 | 83 | 1013.4 |
| 20260502223604 | 58 | 276 | 2.0 | 7.0 | 0.00 | 0.00 | 0.00 | 83 | 1013.7 |
| 20260502222916 | 58 | 289 | 2.0 | 7.0 | 0.00 | 0.00 | 0.00 | 83 | 1013.8 |
| 20260502221805 | 59 | 278 | 2.0 | 8.0 | 0.00 | 0.00 | 0.00 | 83 | 1013.8 |
| 20260502221115 | 58 | 294 | 3.0 | 8.0 | 0.00 | 0.00 | 0.00 | 83 | 1013.9 |
| 20260502220218 | 59 | 304 | 2.0 | 8.0 | 0.00 | 0.00 | 0.00 | 82 | 1014.0 |
| 20260502215404 | 59 | 314 | 3.0 | 7.0 | 0.00 | 0.00 | 0.00 | 82 | 1014.1 |
| 20260502214505 | 59 | 286 | 3.0 | 9.0 | 0.00 | 0.00 | 0.00 | 80 | 1014.2 |
| 20260502213604 | 60 | 291 | 2.0 | 9.0 | 0.00 | 0.00 | 0.00 | 78 | 1014.3 |
| 20260502212705 | 61 | 296 | 2.0 | 8.0 | 0.00 | 0.00 | 0.00 | 78 | 1014.4 |
| 20260502211805 | 61 | 281 | 2.0 | 8.0 | 0.00 | 0.00 | 0.00 | 76 | 1014.4 |
| 20260502210905 | 62 | 294 | 0.0 | 6.0 | 0.00 | 0.00 | 0.00 | 75 | 1014.4 |
| 20260502210005 | 61 | 284 | 1.0 | 5.0 | 0.00 | 0.00 | 0.00 | 77 | 1014.5 |
| 20260502205404 | 61 | 263 | 2.0 | 8.0 | 0.00 | 0.00 | 0.00 | 77 | 1014.5 |
| 20260502204717 | 61 | 283 | 2.0 | 6.0 | 0.00 | 0.00 | 0.00 | 78 | 1014.5 |
| 20260502203814 | 61 | 289 | 2.0 | 8.0 | 0.00 | 0.00 | 0.00 | 78 | 1014.6 |
| 20260502202917 | 61 | 284 | 2.0 | 8.0 | 0.00 | 0.00 | 0.00 | 78 | 1014.7 |
| 20260502202014 | 61 | 307 | 2.0 | 7.0 | 0.00 | 0.00 | 0.00 | 76 | 1014.9 |
| 20260502200904 | 62 | 295 | 2.0 | 7.0 | 0.00 | 0.00 | 0.00 | 77 | 1015.0 |
| 20260502200219 | 61 | 287 | 2.0 | 7.0 | 0.00 | 0.00 | 0.00 | 77 | 1015.1 |
| 20260502195405 | 61 | 284 | 2.0 | 7.0 | 0.00 | 0.00 | 0.00 | 73 | 1015.1 |
| 20260502194504 | 62 | 273 | 1.0 | 6.0 | 0.00 | 0.00 | 0.00 | 72 | 1015.3 |
| 20260502193604 | 61 | 281 | 1.0 | 5.0 | 0.00 | 0.00 | 0.00 | 74 | 1015.4 |
| 20260502192704 | 61 | 292 | 2.0 | 7.0 | 0.00 | 0.00 | 0.00 | 75 | 1015.4 |
| 20260502192015 | 61 | 290 | 2.0 | 7.0 | 0.00 | 0.00 | 0.00 | 75 | 1015.5 |
| 20260502191117 | 61 | 293 | 2.0 | 6.0 | 0.00 | 0.00 | 0.00 | 75 | 1015.6 |
| 20260502190006 | 61 | 286 | 2.0 | 7.0 | 0.00 | 0.00 | 0.00 | 75 | 1015.6 |
| 20260502185405 | 62 | 280 | 1.0 | 6.0 | 0.00 | 0.00 | 0.00 | 73 | 1015.5 |